sat.trackr.live / text

‹ back to catalog

STARLINK-30576

NORAD 58065 · 2023-158Q

PAYLOAD ACTIVE UNKNOWN

§ Identity

Operator
Country
US
Launch date
2023-10-13
Launch site
AFETR
Launch vehicle
Mass (kg)
RCS (m²)

Purposes: comms

External: N2YO · Heavens-Above · Gunter

§ Orbital elements

Epoch: 2026-05-24T22:52:37.573824Z

Period
94.27 min
Inclination
43.0019°
Eccentricity
0.0001289
Mean motion
15.27574907 rev/d
Perigee alt
482.2 km
Apogee alt
483.9 km
Semi-major
6,861.2 km
B*
-4.8126e-5
RAAN
316.3438°
Arg perigee
262.8227°
Mean anomaly
97.2478°
Rev number
14,523

§ Raw data

STARLINK-305761 58065U 23158Q   26144.95321266 -.00001586  00000+0 -48126-4 0  99902 58065  43.0019 316.3438 0001289 262.8227  97.2478 15.27574907145239

JSON: /api/v1/satellites/58065 · /tle

For live sub-satellite position, see the globe view (requires WebGL).

§ Visibility from observer

Set your observer location to see the next 7 days of passes ≥ 10°. The values pass through the URL so the page stays shareable.

No JS? Fill the form by hand. The geolocation button needs JavaScript.